[[{"header":{"parameterUnit":"m.s-1","parameterCategory":1,"la1":30.2991,"la2":30.254,"lo1":-89.0895,"lo2":-89.0444,"dy":0.0017,"dx":0.0017,"nx":28,"ny":28,"refTime":"2025-06-21T09:00:00:Z","depth":0,"parameterNumber":2,"parameterNumberName":"U-component_of_WINDS"},"data":[0,0,0,0,0,0,0,0,0,0,0,0,0,0,0,0,0,0,0,0,0,0,0,0,0,0,0,0,0,0,0,0,0,0,0,0,0,0,0,0,0,0,0,0,0,0,0,0,0,0,0,0,0,0,0,0,0,0,-0.5503,-0.5502,0,-0.5433,-0.5432,-0.5431,-0.5402,-0.5402,-0.5402,-0.5403,-0.533,-0.5329,-0.5326,0,0,0,0,0,0,0,0,0,0,0,0,0,-0.5613,-0.5611,-0.5503,-0.5502,-0.5501,-0.5433,-0.5432,-0.5431,-0.5402,-0.5402,-0.5402,-0.5403,-0.5331,-0.5329,-0.5326,0,0,0,0,0,0,0,0,0,0,0,0,0,-0.5556,-0.561,-0.5503,-0.5479,-0.5476,-0.5433,-0.5432,-0.5431,-0.5402,-0.5402,-0.5403,-0.5403,-0.5332,-0.5329,-0.5326,-0.5303,0,0,-0.5317,-0.5315,0,0,0,0,0,0,0,0,-0.556,-0.5552,-0.5483,-0.548,-0.5477,-0.5427,-0.5444,-0.5388,-0.5402,-0.543,-0.5403,-0.5403,-0.5362,-0.5357,-0.5343,-0.5299,-0.5296,-0.5316,-0.5314,-0.5313,-0.5312,0,0,0,0,0,0,0,-0.5563,-0.5555,-0.5475,-0.5482,-0.5478,-0.5472,-0.5464,-0.5434,-0.5396,-0.5428,-0.5425,-0.5417,-0.5361,-0.5346,-0.5341,-0.5295,-0.5316,-0.5314,-0.5312,-0.5311,-0.5231,-0.5231,0,0,0,0,0,0,-0.5571,-0.5559,-0.5478,-0.5473,-0.552,-0.5469,-0.5461,-0.5443,-0.5396,-0.5389,-0.5417,-0.5416,-0.5351,-0.5345,-0.5339,-0.5309,-0.5313,-0.531,-0.5308,-0.5232,-0.5231,-0.5231,0,0,0,0,0,0,-0.5574,-0.5564,-0.548,-0.5515,-0.5504,-0.5467,-0.5447,-0.5441,-0.5426,-0.5388,-0.5381,-0.5409,-0.5351,-0.5343,-0.5312,-0.5306,-0.5309,-0.5306,-0.5232,-0.5232,-0.5231,-0.5251,0,0,0,0,0,0,-0.5577,-0.5565,-0.5556,-0.5515,-0.5502,-0.5455,-0.5447,-0.544,-0.5421,-0.5419,-0.5379,-0.5373,-0.5351,-0.5317,-0.5309,-0.5302,-0.5304,-0.5232,-0.5232,-0.5231,-0.525,-0.5251,-0.5251,0,0,0,0,0,-0.5581,-0.5563,-0.5555,-0.5546,-0.5489,-0.5455,-0.5447,-0.5423,-0.5421,-0.5411,-0.5387,-0.5374,-0.5309,-0.5314,-0.5305,-0.5297,-0.5233,-0.5232,-0.5231,-0.525,-0.5251,-0.5251,0,0,0,0,0,0,-0.5603,-0.5558,-0.5548,-0.5517,-0.549,-0.545,-0.5436,-0.5424,-0.5397,-0.5396,-0.5367,-0.5358,-0.533,-0.5311,-0.5318,-0.5274,-0.527,-0.5267,-0.5287,-0.5287,-0.5288,-0.5293,-0.5301,0,0,0,0,0,-0.5605,-0.558,-0.5542,-0.5518,-0.5505,-0.5473,-0.5457,-0.5441,-0.5412,-0.54,-0.5374,-0.5346,-0.532,-0.5302,-0.5276,-0.5248,-0.5239,-0.5238,-0.5239,-0.5239,-0.5237,-0.5223,-0.5222,-0.5229,-0.5229,-0.5229,0,0,-0.5607,-0.5579,-0.5565,-0.5522,-0.5499,-0.5475,-0.5464,-0.5438,-0.542,-0.5396,-0.5366,-0.5346,-0.5313,-0.5285,-0.5271,-0.5267,-0.5234,-0.5239,-0.5239,-0.5237,-0.5222,-0.5222,-0.5221,-0.5229,-0.5229,-0.5229,0,0,-0.5598,-0.5575,-0.5553,-0.5531,-0.5497,-0.5477,-0.5472,-0.5434,-0.542,-0.5389,-0.5371,-0.535,-0.5305,-0.5283,-0.5265,-0.5252,-0.5239,-0.5245,-0.5247,-0.5233,-0.5233,-0.5232,-0.5228,-0.5227,-0.5243,-0.5243,-0.5243,0,-0.5605,-0.5568,-0.5543,-0.5519,-0.5501,-0.5479,-0.5458,-0.5438,-0.5397,-0.5385,-0.5383,-0.5327,-0.5303,-0.527,-0.5267,-0.5253,-0.5247,-0.5248,-0.5235,-0.5234,-0.5233,-0.5229,-0.5227,-0.5244,-0.5244,-0.5244,-0.5244,0,-0.5578,-0.5553,-0.554,-0.5502,-0.5482,-0.5459,-0.5432,-0.5415,-0.5402,-0.5382,-0.5352,-0.5324,-0.5292,-0.5283,-0.5269,-0.5248,-0.5248,-0.5241,-0.5236,-0.5234,-0.5229,-0.5227,-0.5245,-0.5245,-0.5244,-0.5244,0,0,-0.558,-0.553,-0.5526,-0.5509,-0.5472,-0.5452,-0.5429,-0.5398,-0.5385,-0.5359,-0.5339,-0.5303,-0.5297,-0.5277,-0.5261,-0.5249,-0.5242,-0.5243,-0.5242,-0.5244,-0.5219,-0.5224,-0.5223,-0.5234,-0.5233,-0.5233,-0.5222,0,-0.5566,-0.5524,-0.5502,-0.547,-0.5447,-0.5427,-0.5408,-0.5383,-0.5365,-0.5343,-0.5323,-0.5298,-0.5291,-0.528,-0.5267,-0.5245,-0.5236,-0.5246,-0.5216,-0.5215,-0.5224,-0.522,-0.5225,-0.5216,-0.522,-0.5219,-0.5219,0,-0.5544,-0.5519,-0.5484,-0.5451,-0.5441,-0.5423,-0.5395,-0.5374,-0.5347,-0.5334,-0.5315,-0.5299,-0.5275,-0.5274,-0.5241,-0.5249,-0.5236,-0.5223,-0.5222,-0.5218,-0.5216,-0.5216,-0.5212,-0.5211,-0.5216,-0.5216,-0.5217,0,-0.5549,-0.5507,-0.5481,-0.5467,-0.5428,-0.5416,-0.54,-0.5372,-0.5356,-0.5332,-0.5321,-0.5294,-0.5279,-0.5259,-0.5237,-0.5238,-0.5207,-0.5204,-0.5197,-0.5198,-0.5191,-0.5191,-0.5185,-0.5183,-0.5183,-0.5183,-0.5183,0,-0.5536,-0.5516,-0.5483,-0.5466,-0.5444,-0.542,-0.5398,-0.538,-0.5357,-0.5338,-0.532,-0.5302,-0.5274,-0.5254,-0.5237,-0.5214,-0.5207,-0.5197,-0.5192,-0.5198,-0.52,-0.5189,-0.5189,-0.5182,-0.5182,-0.5183,-0.5183,0,-0.5537,-0.5514,-0.5485,-0.5451,-0.5442,-0.5427,-0.5398,-0.5383,-0.5365,-0.5341,-0.5334,-0.5306,-0.5281,-0.5257,-0.5224,-0.5213,-0.519,-0.5184,-0.5199,-0.5196,-0.5191,-0.5192,-0.5177,-0.5174,-0.5175,-0.5175,-0.5175,0,-0.553,-0.5514,-0.5479,-0.5466,-0.5449,-0.5427,-0.5411,-0.5388,-0.5372,-0.5341,-0.5329,-0.5304,-0.5281,-0.5243,-0.522,-0.5195,-0.5189,-0.5185,-0.5184,-0.5192,-0.5189,-0.519,-0.5189,-0.5185,-0.5185,-0.5186,-0.5186,0,-0.552,-0.551,-0.5487,-0.5462,-0.5443,-0.5421,-0.5399,-0.5389,-0.5362,-0.5345,-0.532,-0.5303,-0.527,-0.5245,-0.5218,-0.5202,-0.519,-0.5186,-0.5184,-0.5189,-0.5199,-0.5194,-0.52,-0.5186,-0.5186,-0.5186,-0.5186,-0.5186,-0.5517,-0.5503,-0.5476,-0.5452,-0.5434,-0.5414,-0.5398,-0.5379,-0.5357,-0.5329,-0.5317,-0.5292,-0.5267,-0.523,-0.5214,-0.5195,-0.5192,-0.5188,-0.5186,-0.5186,-0.5187,-0.5202,-0.519,-0.519,-0.519,-0.519,-0.5189,0,-0.5506,-0.5489,-0.5468,-0.5438,-0.5419,-0.5411,-0.5386,-0.5371,-0.535,-0.5328,-0.5307,-0.5279,-0.5256,-0.5232,-0.5207,-0.5197,-0.5191,-0.5191,-0.5191,-0.5188,-0.5191,-0.5196,-0.5196,-0.5196,-0.5196,-0.5196,-0.5196,-0.5196,-0.5499,-0.5474,-0.5462,-0.5429,-0.5412,-0.5387,-0.5374,-0.5357,-0.5339,-0.5309,-0.529,-0.5274,-0.5252,-0.5226,-0.5205,-0.5199,-0.5191,-0.5192,-0.5185,-0.5188,-0.5187,-0.5187,-0.5192,-0.5191,-0.5191,-0.5183,-0.5183,-0.5183]},{"header":{"parameterUnit":"m.s-1","parameterCategory":1,"la1":30.2991,"la2":30.254,"lo1":-89.0895,"lo2":-89.0444,"dy":0.0017,"dx":0.0017,"nx":28,"ny":28,"refTime":"2025-06-21T09:00:00:Z","depth":0,"parameterNumber":3,"parameterNumberName":"V-component_of_WINDS"},"data":[0,0,0,0,0,0,0,0,0,0,0,0,0,0,0,0,0,0,0,0,0,0,0,0,0,0,0,0,0,0,0,0,0,0,0,0,0,0,0,0,0,0,0,0,0,0,0,0,0,0,0,0,0,0,0,0,0,0,2.8385,2.8385,0,2.8363,2.8363,2.8363,2.8388,2.8389,2.839,2.8391,2.8366,2.8364,2.8363,0,0,0,0,0,0,0,0,0,0,0,0,0,2.8443,2.8442,2.8385,2.8385,2.8384,2.8364,2.8363,2.8363,2.8388,2.8389,2.8391,2.8392,2.8366,2.8364,2.8362,0,0,0,0,0,0,0,0,0,0,0,0,0,2.8419,2.8441,2.8385,2.8395,2.8395,2.8364,2.8363,2.8363,2.8388,2.8389,2.8391,2.8392,2.8367,2.8364,2.8362,2.8319,0,0,2.8355,2.8354,0,0,0,0,0,0,0,0,2.842,2.8417,2.8393,2.8394,2.8395,2.838,2.8374,2.8348,2.8388,2.8391,2.8391,2.8393,2.8369,2.8367,2.8359,2.8318,2.8317,2.8355,2.8353,2.8352,2.8352,0,0,0,0,0,0,0,2.8422,2.8418,2.8376,2.8393,2.8394,2.8398,2.8397,2.8369,2.8372,2.839,2.8392,2.839,2.837,2.8362,2.8359,2.8316,2.8355,2.8353,2.8351,2.835,2.8235,2.8233,0,0,0,0,0,0,2.8423,2.8419,2.8377,2.8376,2.8411,2.8396,2.8394,2.8383,2.8372,2.8372,2.8388,2.8391,2.8365,2.8362,2.8358,2.8304,2.8352,2.835,2.8349,2.8236,2.8234,2.8232,0,0,0,0,0,0,2.8424,2.8419,2.8378,2.8398,2.8393,2.8394,2.8381,2.8382,2.8374,2.8371,2.8371,2.838,2.8366,2.8361,2.8328,2.8304,2.8349,2.8347,2.8238,2.8236,2.8233,2.8198,0,0,0,0,0,0,2.8426,2.842,2.8404,2.8397,2.8392,2.8349,2.838,2.8381,2.837,2.8373,2.8363,2.8362,2.8367,2.8331,2.8326,2.8301,2.8345,2.824,2.8237,2.8234,2.8201,2.8194,2.8188,0,0,0,0,0,2.8428,2.8395,2.8403,2.8398,2.8373,2.8348,2.8345,2.8351,2.8368,2.8352,2.8349,2.8363,2.8308,2.8328,2.8321,2.8296,2.8242,2.8238,2.8234,2.8204,2.8195,2.8189,0,0,0,0,0,0,2.8398,2.8394,2.8404,2.8368,2.8358,2.8352,2.8332,2.8343,2.8327,2.833,2.8338,2.8335,2.8299,2.8295,2.8317,2.8252,2.8277,2.8272,2.8256,2.8248,2.8242,2.8243,2.8343,0,0,0,0,0,2.8388,2.8369,2.8366,2.8335,2.833,2.8332,2.8321,2.8327,2.8316,2.8312,2.8307,2.8296,2.8275,2.8262,2.8244,2.8201,2.8197,2.818,2.8174,2.8169,2.8163,2.8137,2.8129,2.822,2.822,2.822,0,0,2.8365,2.8361,2.8349,2.8329,2.8322,2.83,2.8328,2.8305,2.8288,2.8308,2.8276,2.8272,2.8259,2.822,2.8203,2.8215,2.8138,2.8164,2.816,2.8157,2.8132,2.8124,2.8116,2.8218,2.8218,2.8218,0,0,2.8313,2.8309,2.8281,2.8274,2.8263,2.8264,2.8258,2.825,2.8248,2.8216,2.823,2.821,2.8176,2.8165,2.8155,2.8097,2.8108,2.8091,2.8058,2.8032,2.8025,2.8018,2.7994,2.7986,2.8086,2.8086,2.8086,0,2.8286,2.8256,2.8265,2.824,2.823,2.8248,2.8218,2.821,2.8194,2.8185,2.82,2.8155,2.8149,2.8106,2.8091,2.8084,2.8074,2.8091,2.8025,2.8019,2.8013,2.799,2.7982,2.8084,2.8084,2.8084,2.8085,0,2.8222,2.82,2.8179,2.8162,2.815,2.8123,2.8126,2.8112,2.8118,2.8117,2.8083,2.8075,2.8054,2.8045,2.8051,2.8001,2.8009,2.8025,2.805,2.8002,2.798,2.7972,2.8081,2.8082,2.8082,2.8083,0,0,2.815,2.8139,2.813,2.8122,2.8111,2.8093,2.8066,2.8046,2.8032,2.802,2.7995,2.7965,2.7979,2.7967,2.7973,2.795,2.7901,2.7968,2.7968,2.7953,2.7842,2.7829,2.7819,2.7909,2.7907,2.7906,2.7842,0,2.8095,2.8049,2.8056,2.801,2.7988,2.8005,2.798,2.797,2.7968,2.7948,2.7945,2.7923,2.7944,2.7937,2.7916,2.7911,2.7878,2.7916,2.7883,2.7881,2.7883,2.7808,2.7795,2.7735,2.7834,2.7833,2.7832,0,2.8025,2.8011,2.7963,2.7953,2.7944,2.7922,2.7903,2.7885,2.7872,2.7872,2.7859,2.7867,2.7837,2.7864,2.7821,2.7847,2.7834,2.7829,2.7827,2.7822,2.7852,2.7798,2.7716,2.7706,2.7819,2.782,2.7821,0,2.7974,2.7942,2.7909,2.7902,2.789,2.7874,2.7868,2.7857,2.7844,2.7827,2.7817,2.7797,2.7785,2.7768,2.7769,2.779,2.7724,2.7752,2.7721,2.772,2.7704,2.7705,2.7616,2.77,2.77,2.7701,2.7701,0,2.7911,2.788,2.7885,2.7864,2.7829,2.7837,2.7802,2.7798,2.7787,2.7764,2.7778,2.7755,2.776,2.7737,2.7738,2.77,2.7696,2.7693,2.7693,2.769,2.769,2.7679,2.7682,2.7698,2.7699,2.7699,2.77,0,2.7847,2.785,2.7813,2.7805,2.7802,2.7777,2.7769,2.7748,2.7747,2.7717,2.7711,2.7709,2.7682,2.7682,2.7652,2.7653,2.7605,2.7612,2.761,2.761,2.7577,2.7579,2.7476,2.7462,2.7558,2.7557,2.7556,0,2.7805,2.7782,2.7771,2.7757,2.775,2.7728,2.7714,2.772,2.7705,2.7687,2.7667,2.7643,2.7623,2.7579,2.7573,2.7549,2.7553,2.7519,2.755,2.7546,2.7549,2.7549,2.7545,2.7512,2.7511,2.751,2.7509,0,2.773,2.7732,2.7713,2.7693,2.7676,2.7661,2.7647,2.7634,2.7638,2.762,2.7593,2.7578,2.7546,2.752,2.7497,2.7488,2.7498,2.75,2.7491,2.7486,2.7485,2.7482,2.759,2.7502,2.7503,2.7503,2.7504,2.7504,2.7674,2.7653,2.7641,2.7618,2.7608,2.7594,2.7573,2.757,2.7548,2.7524,2.7528,2.7497,2.7483,2.7452,2.7442,2.7416,2.7428,2.7416,2.7412,2.7408,2.7403,2.7491,2.7412,2.7413,2.7413,2.7413,2.7413,0,2.7597,2.759,2.7569,2.7549,2.753,2.7543,2.7527,2.751,2.7483,2.7469,2.7449,2.7416,2.739,2.7383,2.7357,2.7337,2.7341,2.733,2.733,2.7327,2.7395,2.7405,2.7327,2.7327,2.7327,2.7327,2.7328,2.7328,2.7554,2.7518,2.7519,2.7477,2.747,2.7441,2.743,2.7416,2.7405,2.7368,2.7347,2.7343,2.733,2.7303,2.7279,2.7277,2.7265,2.7252,2.7251,2.7315,2.7323,2.7331,2.734,2.725,2.725,2.7185,2.7185,2.7184]}]]